Showing default

EXACTVIEW-1, 38709

Orbit data source: Space-Track

EXACTVIEW-1, 38709 is a payload satellite owned by exactEarth (CA) in SSO that was launched on Sun, 22 Jul 2012 UTC via a SOYUZ-FG launch vehicle from the Tyuratam Missile And Space Complex (TTMTR). Payload-class satellites include a variety of spacecraft equipped with specific instruments for various scientific and technological missions. These include communications satellites like Starlink; space stations such as the ISS; scientific satellites like the Hubble; Earth observation satellites from companies like Planet Labs, Umbra, and HawkEye 360; GPS; miniature CubeSats for education and research; and military/defense satellites.

Loading next visibility...
Identifier
38709, 2012-039C
Orbit
SSO
Country
Flag of CACA
Related business
Manufacturer
SSTL (Astrium)
Mission
Operational Civil Communications
Bus & Motor
SSTL-100, Unknown motor
Mass
95 kg wet, 95 kg dry
Launch date (UTC)
2012-07-22 (13 years ago)
Launch vehicle
SOYUZ-FG
Launch site
Tyuratam Missile And Space Complex (TTMTR)
Object type
Payload
Rocket body
Debris
Shape & HBR
Box + 1 Pan, 0.5 m
Radar Cross Section
0.591 m², Medium (>0.1 m² and < 1m²)

Expand to show TLE details & history
Last TLE update: 10 hours ago

TLE from 10 hours ago
0 EXACTVIEW-1
1 38709U 12039C   25260.86360911  .00000116  00000-0  69687-4 0  9999
2 38709  98.9583   7.4846 0010101 232.9186 127.1070 14.24851278683922
Epoch: 2025-09-17T20:43Z
TLE epoch observation values (Epoch: 2025-09-17T20:43:35.827Z)
Latitude
0.00005°
Longitude
59.55186°
Altitude
816.291 km
Speed
7.443 km/s
True Right ascension
00h 29m 56s
True Declination
0° 00' 00"
Sunlit
Object was in full shadow at epoch
Visualization orbit readout
Latitude
Unknown
Longitude
Unknown
Altitude
Unknown
Speed
Unknown
Apparent Right ascension
Unknown
Apparent Declination
Unknown
Sunlit
N/A
Visualization observer readout
Local Sidereal Time
23:32:37
Azimuth
Unknown
Elevation
Unknown
Doppler factor
Unknown
Orbital elements
Apogee altitude
813.414 km
Perigee altitude
798.9 km
Semi-major axis
7,184.294 km
Eccentricity
0.00101
Inclination
98.9583°
RAAN
7.4846°
Arg. of periapsis
232.9186°
True anomaly
127.19924°
Mean anomaly
127.107°
Eccentric anomaly
127.15313°
Mean motion
3.56424 °/min
Orbital period
101 mins
BSTAR
0.000069687
Loading maneuver chart data...
Computing Atmospheric mass density...
Loading historical data...
Loading historical data...
Loading historical data...
Loading historical data...
Loading historical data...
Loading historical data...
Loading historical data...

Documentation

Showing up to 5 results
|